DW5560 Heraklion GR current weather conditions

sailwx.info

Wind from 338 at 4 knots gusting 10

Air temperature 22.8° C
Dewpoint 17.2° C

Last reported at 2020-Jul-11 04:01 UTC.
Time now 2020-Jul-11 05:17 UTC

Location: N 35°15' E 025°04'.
View on Google Maps.

See reports from other nearby stations

  
Tides and Currents Weather Stations Pressure Air Temp Water Temp Dewpoint Dewpoint Depression Visibility Wind Speed Wind Dir Waves Ship Positions
date/time (UTC)wind fromknots sea level pressurealtimeterstation pressurevisibilityair tempwater tempwave heightnotes
2020-Jul-11 05:01 301 6 gusting 13 23.3
2020-Jul-11 04:56 325 5 gusting 10 23.3
2020-Jul-11 04:51 006 5 gusting 11 23.3
2020-Jul-11 04:46 323 6 gusting 13 22.8
2020-Jul-11 04:41 011 6 gusting 13 22.8
2020-Jul-11 04:36 275 6 gusting 12 22.8
2020-Jul-11 04:31 344 7 gusting 11 22.8
2020-Jul-11 04:26 326 6 gusting 12 22.8
2020-Jul-11 04:21 004 5 gusting 12 22.8
2020-Jul-11 04:16 015 6 gusting 11 22.8
2020-Jul-11 04:11 319 5 gusting 10 22.8
2020-Jul-11 04:06 034 4 gusting 10 22.8
2020-Jul-11 04:01 338 4 gusting 10 22.8
2020-Jul-11 03:56 321 5 gusting 13 22.2
2020-Jul-11 03:51 323 7 gusting 12 22.2
2020-Jul-11 03:46 318 5 gusting 10 22.2
2020-Jul-11 03:41 295 4 gusting 11 22.2
2020-Jul-11 03:36 315 6 gusting 12 22.2
2020-Jul-11 03:31 338 5 gusting 12 22.2
2020-Jul-11 03:26 322 6 gusting 10 22.2
2020-Jul-11 03:21 328 5 gusting 9 22.2
2020-Jul-11 03:16 026 5 gusting 9 22.2
2020-Jul-11 03:11 355 5 gusting 9 22.2
2020-Jul-11 03:06 328 4 gusting 9 22.2
2020-Jul-11 03:01 328 5 gusting 10 22.2
2020-Jul-11 02:56 354 4 gusting 7 22.2
2020-Jul-11 02:51 347 4 gusting 7 22.2
2020-Jul-11 02:46 331 4 gusting 7 22.2
2020-Jul-11 02:41 009 4 gusting 7 22.2
2020-Jul-11 02:36 330 3 gusting 6 22.2
2020-Jul-11 02:31 009 4 gusting 6 22.2
2020-Jul-11 02:26 351 4 gusting 7 22.2
2020-Jul-11 02:21 355 3 gusting 9 22.8
2020-Jul-11 02:16 318 6 gusting 10 22.8
2020-Jul-11 02:11 026 5 gusting 10 22.8
2020-Jul-11 02:06 355 5 gusting 10 22.8
2020-Jul-11 02:01 355 6 gusting 11 22.8
2020-Jul-11 01:56 034 7 gusting 13 22.8
2020-Jul-11 01:51 281 6 gusting 11 22.8
2020-Jul-11 01:46 009 6 gusting 13 22.2
2020-Jul-11 01:41 006 8 gusting 13 22.2
2020-Jul-11 01:36 324 6 gusting 11 22.2
2020-Jul-11 01:31 309 6 gusting 11 22.2
2020-Jul-11 01:26 325 7 gusting 12 22.2
2020-Jul-11 01:21 335 6 gusting 15 22.8
2020-Jul-11 01:16 318 8 gusting 15 22.8
2020-Jul-11 01:11 341 9 gusting 13 22.8
2020-Jul-11 01:06 321 7 gusting 13 22.8
2020-Jul-11 01:01 020 8 gusting 13 22.8
2020-Jul-11 00:56 311 7 gusting 13 22.8
2020-Jul-11 00:51 302 8 gusting 13 22.8
2020-Jul-11 00:46 321 6 gusting 13 22.8
2020-Jul-11 00:41 311 6 gusting 13 22.8
2020-Jul-11 00:36 338 7 gusting 13 22.8
2020-Jul-11 00:31 341 8 gusting 13 22.8
2020-Jul-11 00:26 345 6 gusting 13 22.8
2020-Jul-11 00:21 016 7 gusting 13 22.8
2020-Jul-11 00:16 338 6 gusting 13 22.8
2020-Jul-11 00:11 008 6 gusting 10 22.8
2020-Jul-11 00:06 324 6 gusting 11 22.8
2020-Jul-11 00:01 063 6 gusting 11 22.8
2020-Jul-10 23:56 321 8 gusting 12 22.8
2020-Jul-10 23:51 013 7 gusting 12 22.8
2020-Jul-10 23:46 008 7 gusting 12 23.3
2020-Jul-10 23:41 030 7 gusting 12 23.3
2020-Jul-10 23:36 016 7 gusting 12 23.3
2020-Jul-10 23:31 326 7 gusting 12 23.3
2020-Jul-10 23:26 356 7 gusting 12 23.3
2020-Jul-10 23:21 353 6 gusting 14 23.3
2020-Jul-10 23:16 338 9 gusting 14 23.3
2020-Jul-10 23:11 359 7 gusting 14 23.3
2020-Jul-10 23:06 329 7 gusting 14 23.3
2020-Jul-10 23:01 350 8 gusting 11 23.3
2020-Jul-10 22:56 025 7 gusting 12 23.3
2020-Jul-10 22:51 326 7 gusting 12 23.3
2020-Jul-10 22:46 343 7 gusting 13 23.3
2020-Jul-10 22:41 326 8 gusting 13 23.3
2020-Jul-10 22:36 357 8 gusting 12 22.8
2020-Jul-10 22:31 356 7 gusting 13 22.8
2020-Jul-10 22:26 354 8 gusting 13 22.8
2020-Jul-10 22:21 025 7 gusting 11 22.8
2020-Jul-10 22:16 329 6 gusting 11 23.3
2020-Jul-10 22:11 351 6 gusting 11 23.3
2020-Jul-10 22:06 331 5 gusting 11 23.3
2020-Jul-10 22:01 331 6 gusting 11 23.3
2020-Jul-10 21:56 338 6 gusting 13 23.3
2020-Jul-10 21:51 325 9 gusting 14 23.3
2020-Jul-10 21:46 353 8 gusting 13 23.3
2020-Jul-10 21:41 330 6 gusting 10 23.3
2020-Jul-10 21:36 319 6 gusting 10 23.3
2020-Jul-10 21:26 292 6 gusting 11 23.3
2020-Jul-10 21:21 011 6 gusting 10 23.3
2020-Jul-10 21:16 331 6 gusting 13 23.3
2020-Jul-10 21:11 348 7 gusting 12 23.3
2020-Jul-10 21:06 021 6 gusting 12 23.3
2020-Jul-10 20:56 008 7 gusting 13 23.3
2020-Jul-10 20:51 027 6 gusting 13 23.3
2020-Jul-10 20:46 342 6 gusting 13 23.3
2020-Jul-10 20:41 351 7 gusting 13 23.3
2020-Jul-10 20:36 356 6 gusting 13 23.3
2020-Jul-10 20:31 014 6 gusting 13 22.8
2020-Jul-10 20:26 328 6 gusting 13 22.8
2020-Jul-10 20:21 359 6 gusting 10 22.8
2020-Jul-10 20:16 315 5 gusting 10 22.8
2020-Jul-10 20:11 341 7 gusting 11 22.8
2020-Jul-10 20:06 033 7 gusting 11 22.8
2020-Jul-10 20:01 359 6 gusting 12 22.8
2020-Jul-10 19:56 330 6 gusting 12 22.8
2020-Jul-10 19:51 315 6 gusting 12 22.8
2020-Jul-10 19:46 011 7 gusting 12 22.8
2020-Jul-10 19:41 046 6 gusting 13 22.2
2020-Jul-10 19:36 338 6 gusting 12 22.2
2020-Jul-10 19:31 011 7 gusting 12 22.2
2020-Jul-10 19:26 359 7 gusting 12 22.2
2020-Jul-10 19:21 013 6 gusting 12 22.2
2020-Jul-10 19:16 356 7 gusting 11 22.2
2020-Jul-10 19:11 347 7 gusting 11 22.2
2020-Jul-10 19:06 304 8 gusting 12 22.2
2020-Jul-10 19:02 008 7 gusting 13 22.2
2020-Jul-10 18:56 300 6 gusting 13 22.8
2020-Jul-10 18:51 040 8 gusting 13 22.2
2020-Jul-10 18:46 350 8 gusting 13 22.2
2020-Jul-10 18:41 357 7 gusting 13 22.2
2020-Jul-10 18:36 345 7 gusting 12 22.2
2020-Jul-10 18:31 018 8 gusting 12 22.2
2020-Jul-10 18:26 009 7 gusting 12 22.8
2020-Jul-10 18:21 342 7 gusting 12 22.8
2020-Jul-10 18:16 358 6 gusting 12 22.8
2020-Jul-10 18:11 345 6 gusting 16 22.8
2020-Jul-10 18:06 343 8 gusting 16 22.8
2020-Jul-10 18:01 025 6 gusting 12 22.8
2020-Jul-10 17:56 332 6 gusting 12 22.8
2020-Jul-10 17:51 318 6 gusting 10 22.8
2020-Jul-10 17:46 336 6 gusting 10 22.8
2020-Jul-10 17:41 343 6 gusting 11 22.8
2020-Jul-10 17:36 354 6 gusting 12 23.3
2020-Jul-10 17:31 308 6 gusting 12 23.3
2020-Jul-10 17:26 013 7 gusting 12 23.3
2020-Jul-10 17:21 340 7 gusting 11 23.3
2020-Jul-10 17:16 014 6 gusting 12 23.3
2020-Jul-10 17:11 027 7 gusting 11 23.9
2020-Jul-10 17:06 331 6 gusting 11 23.9
2020-Jul-10 17:01 345 8 gusting 12 23.9
2020-Jul-10 16:56 006 7 gusting 13 23.9
2020-Jul-10 16:51 039 7 gusting 13 24.4
2020-Jul-10 16:46 011 7 gusting 13 24.4
2020-Jul-10 16:41 015 8 gusting 13 24.4
2020-Jul-10 16:36 338 9 gusting 13 24.4
2020-Jul-10 16:31 309 6 gusting 13 24.4
2020-Jul-10 16:26 054 7 gusting 14 24.4
2020-Jul-10 16:21 340 9 gusting 14 24.4
2020-Jul-10 16:16 040 8 gusting 13 24.4
2020-Jul-10 16:11 026 8 gusting 13 24.4
2020-Jul-10 16:06 019 7 gusting 13 24.4
2020-Jul-10 16:01 001 8 gusting 12 24.4
2020-Jul-10 15:56 023 6 gusting 13 25.0
2020-Jul-10 15:51 013 7 gusting 13 25.0
2020-Jul-10 15:46 316 8 gusting 13 25.0
2020-Jul-10 15:41 011 9 gusting 14 25.0
2020-Jul-10 15:36 033 7 gusting 14 25.0
2020-Jul-10 15:31 335 7 gusting 13 25.0
2020-Jul-10 15:26 345 7 gusting 12 25.0
2020-Jul-10 15:21 345 7 gusting 14 25.0
2020-Jul-10 15:16 025 9 gusting 14 25.0
2020-Jul-10 15:11 037 9 gusting 13 25.0
2020-Jul-10 15:06 347 7 gusting 14 25.0
2020-Jul-10 15:01 335 9 gusting 14 25.0
2020-Jul-10 14:51 338 8 gusting 14 25.6
2020-Jul-10 14:46 041 8 gusting 14 25.6
2020-Jul-10 14:41 039 8 gusting 16 25.6
2020-Jul-10 14:36 011 11 gusting 16 25.6
2020-Jul-10 14:31 012 11 gusting 16 25.6
2020-Jul-10 14:26 336 9 gusting 13 25.6
2020-Jul-10 14:21 308 8 gusting 14 26.1
2020-Jul-10 14:16 014 7 gusting 14 26.1
2020-Jul-10 14:11 021 8 gusting 13 26.1
2020-Jul-10 14:06 343 9 gusting 13 26.1
2020-Jul-10 14:01 036 8 gusting 15 26.1
2020-Jul-10 13:56 360 8 gusting 13 26.1
2020-Jul-10 13:51 328 7 gusting 15 26.1
2020-Jul-10 13:46 315 9 gusting 15 26.1
2020-Jul-10 13:41 357 8 gusting 16 26.1
2020-Jul-10 13:36 307 9 gusting 14 26.1
2020-Jul-10 13:31 005 10 gusting 14 26.1
2020-Jul-10 13:26 074 8 gusting 16 26.1
2020-Jul-10 13:21 328 8 gusting 16 26.1
2020-Jul-10 13:16 032 11 gusting 14 26.7
2020-Jul-10 13:11 001 9 gusting 14 26.7
2020-Jul-10 13:06 331 8 gusting 13 26.7
2020-Jul-10 13:01 357 6 gusting 13 26.7
2020-Jul-10 12:56 304 7 gusting 13 26.7
2020-Jul-10 12:51 011 8 gusting 13 27.2
2020-Jul-10 12:46 033 9 gusting 18 27.2
2020-Jul-10 12:41 008 9 gusting 18 27.2
2020-Jul-10 12:36 309 8 gusting 16 27.2
2020-Jul-10 12:26 036 9 gusting 15 27.2
2020-Jul-10 12:21 026 8 gusting 13 27.2
2020-Jul-10 12:16 318 7 gusting 14 27.2
2020-Jul-10 12:11 321 7 gusting 14 27.2
2020-Jul-10 12:06 023 8 gusting 15 27.2
2020-Jul-10 12:01 338 7 gusting 15 27.2
2020-Jul-10 11:56 358 7 gusting 15 27.2
2020-Jul-10 11:51 018 10 gusting 15 27.2
2020-Jul-10 11:46 358 7 gusting 15 27.2
2020-Jul-10 11:41 339 7 gusting 13 27.2
2020-Jul-10 11:36 006 6 gusting 14 27.2
2020-Jul-10 11:31 318 6 gusting 13 27.2
2020-Jul-10 11:26 011 9 gusting 15 27.2
2020-Jul-10 11:21 029 8 gusting 13 27.2
2020-Jul-10 11:16 019 8 gusting 15 27.2
2020-Jul-10 11:11 335 8 gusting 15 27.2
2020-Jul-10 11:06 347 7 gusting 13 27.2
2020-Jul-10 11:01 043 6 gusting 13 27.2
2020-Jul-10 10:56 359 6 gusting 12 27.2
2020-Jul-10 10:51 025 6 gusting 13 27.2
2020-Jul-10 10:46 335 9 gusting 13 27.2
2020-Jul-10 10:41 027 6 gusting 11 27.2
2020-Jul-10 10:36 001 6 gusting 13 27.2
2020-Jul-10 10:31 318 6 gusting 14 27.2
2020-Jul-10 10:26 014 3 gusting 11 27.2
2020-Jul-10 10:21 340 6 gusting 12 27.2
2020-Jul-10 10:16 338 7 gusting 12 27.2
2020-Jul-10 10:11 306 7 gusting 13 27.2
2020-Jul-10 10:06 356 8 gusting 14 26.7
2020-Jul-10 10:01 351 7 gusting 13 27.2
2020-Jul-10 09:56 013 7 gusting 13 27.2
2020-Jul-10 09:51 357 7 gusting 13 27.2
2020-Jul-10 09:46 349 6 gusting 13 27.8
2020-Jul-10 09:41 311 7 gusting 13 27.2
2020-Jul-10 09:36 328 6 gusting 9 27.2
2020-Jul-10 09:31 025 4 gusting 13 27.2
2020-Jul-10 09:26 326 6 gusting 15 27.2
2020-Jul-10 09:21 345 7 gusting 15 26.7
2020-Jul-10 09:16 301 7 gusting 14 26.7
2020-Jul-10 09:11 001 5 gusting 14 26.7
2020-Jul-10 09:06 006 8 gusting 14 26.7
2020-Jul-10 09:01 333 8 gusting 13 26.7
2020-Jul-10 08:56 036 8 gusting 15 26.7
2020-Jul-10 08:51 274 8 gusting 15 26.7
2020-Jul-10 08:46 338 6 gusting 13 26.7
2020-Jul-10 08:41 302 6 gusting 12 26.7
2020-Jul-10 08:36 338 6 gusting 14 26.1
2020-Jul-10 08:26 326 9 gusting 17 26.1
2020-Jul-10 08:21 001 5 gusting 13 25.6
2020-Jul-10 08:16 006 6 gusting 14 25.6
2020-Jul-10 08:11 034 7 gusting 15 25.6
2020-Jul-10 08:06 318 6 gusting 15 25.6
2020-Jul-10 08:01 297 10 gusting 14 25.6
2020-Jul-10 07:56 330 6 gusting 14 25.6
2020-Jul-10 07:51 326 6 gusting 17 25.6
2020-Jul-10 07:46 038 6 gusting 16 25.0
2020-Jul-10 07:41 012 9 gusting 16 25.0
2020-Jul-10 07:36 347 6 gusting 13 25.0
2020-Jul-10 07:31 305 7 gusting 13 25.0
2020-Jul-10 07:26 330 7 gusting 15 25.0
2020-Jul-10 07:22 345 6 gusting 15 25.0
2020-Jul-10 07:16 341 7 gusting 14 25.0
2020-Jul-10 07:11 347 8 gusting 14 25.0
2020-Jul-10 07:06 330 7 gusting 12 24.4
2020-Jul-10 07:01 033 6 gusting 13 24.4
2020-Jul-10 06:56 331 7 gusting 15 24.4
2020-Jul-10 06:51 338 7 gusting 15 24.4
2020-Jul-10 06:46 301 7 gusting 17 23.9
2020-Jul-10 06:41 301 10 gusting 17 23.9
2020-Jul-10 06:36 001 7 gusting 16 23.9
2020-Jul-10 06:31 338 8 gusting 13 24.4
2020-Jul-10 06:26 341 8 gusting 17 23.9
2020-Jul-10 06:21 312 8 gusting 19 23.9
2020-Jul-10 06:16 349 12 gusting 17 23.9
2020-Jul-10 06:11 338 8 gusting 19 23.9
2020-Jul-10 06:06 350 9 gusting 17 23.3
2020-Jul-10 06:01 321 8 gusting 19 23.3
2020-Jul-10 05:56 331 7 gusting 19 23.3
2020-Jul-10 05:51 357 12 gusting 18 23.3
2020-Jul-10 05:46 329 10 gusting 17 23.3
2020-Jul-10 05:41 311 10 gusting 17 23.3
2020-Jul-10 05:36 321 7 gusting 14 23.3
2020-Jul-10 05:31 266 6 gusting 15 23.3
2020-Jul-10 05:26 355 7 gusting 15 23.3
2020-Jul-10 05:21 357 8 gusting 14 22.8
2020-Jul-10 05:16 008 9 gusting 17 22.8
2020-Jul-10 05:11 011 8 gusting 17 22.8
2020-Jul-10 05:06 335 9 gusting 14 22.8
2020-Jul-10 05:01 339 8 gusting 16 22.8
2020-Jul-10 04:56 312 7 gusting 16 22.8
2020-Jul-10 04:51 288 9 gusting 19 22.8
2020-Jul-10 04:46 318 11 gusting 19 22.2
2020-Jul-10 04:41 338 6 gusting 14 22.2
2020-Jul-10 04:36 315 8 gusting 14 22.2
2020-Jul-10 04:31 025 8 gusting 14 22.2
2020-Jul-10 04:26 302 8 gusting 14 22.2
2020-Jul-10 04:22 011 8 gusting 16 22.2
2020-Jul-10 04:16 053 8 gusting 15 22.2
2020-Jul-10 04:11 345 8 gusting 13 22.2
2020-Jul-10 04:06 343 8 gusting 13 22.2
2020-Jul-10 04:01 335 8 gusting 14 21.7
2020-Jul-10 03:56 321 8 gusting 15 21.7
2020-Jul-10 03:51 326 9 gusting 15 21.7
2020-Jul-10 03:46 354 8 gusting 16 21.7
2020-Jul-10 03:41 321 8 gusting 16 21.7
2020-Jul-10 03:36 295 9 gusting 14 21.7
2020-Jul-10 03:31 302 9 gusting 18 21.7
2020-Jul-10 03:26 342 9 gusting 18 21.7
2020-Jul-10 03:21 281 7 gusting 13 21.7
2020-Jul-10 03:16 034 8 gusting 13 21.7
2020-Jul-10 03:11 345 7 gusting 13 21.7
2020-Jul-10 03:06 019 6 gusting 13 21.7
2020-Jul-10 03:01 325 8 gusting 13 21.7
2020-Jul-10 02:56 331 7 gusting 13 21.7
2020-Jul-10 02:51 315 6 gusting 14 21.7
2020-Jul-10 02:46 314 9 gusting 14 21.7
2020-Jul-10 02:41 043 8 gusting 13 21.7
2020-Jul-10 02:36 029 7 gusting 13 21.7
2020-Jul-10 02:31 340 6 gusting 13 21.7
2020-Jul-10 02:26 347 6 gusting 13 21.7
2020-Jul-10 02:21 345 6 gusting 11 21.7
2020-Jul-10 02:11 297 6 gusting 13 21.7
2020-Jul-10 02:06 345 6 gusting 13 21.7
2020-Jul-10 02:01 302 7 gusting 13 22.2
2020-Jul-10 01:56 321 6 gusting 13 22.2
2020-Jul-10 01:51 301 6 gusting 12 22.2
2020-Jul-10 01:46 345 5 gusting 13 22.2
2020-Jul-10 01:41 340 7 gusting 13 22.2
2020-Jul-10 01:36 349 4 gusting 11 22.2
2020-Jul-10 01:26 341 5 gusting 11 22.2
2020-Jul-10 01:21 314 5 gusting 12 22.2
2020-Jul-10 01:16 308 5 gusting 13 22.2
2020-Jul-10 01:11 339 7 gusting 13 22.2
2020-Jul-10 01:06 333 6 gusting 13 22.2
2020-Jul-10 01:01 328 8 gusting 12 22.2
2020-Jul-10 00:56 308 6 gusting 11 22.2
2020-Jul-10 00:51 341 6 gusting 11 22.2
2020-Jul-10 00:46 004 6 gusting 11 22.2
2020-Jul-10 00:41 325 6 gusting 10 22.2
2020-Jul-10 00:36 355 6 gusting 13 22.2
2020-Jul-10 00:31 032 7 gusting 14 22.2
2020-Jul-10 00:26 302 6 gusting 14 22.2
2020-Jul-10 00:21 297 5 gusting 12 22.2
2020-Jul-10 00:16 358 6 gusting 15 22.2
2020-Jul-10 00:12 297 6 gusting 13 22.2
2020-Jul-10 00:06 323 6 gusting 15 22.2
2020-Jul-10 00:01 001 7 gusting 15 22.2
2020-Jul-09 23:56 336 8 gusting 13 22.2
2020-Jul-09 23:51 304 5 gusting 15 22.2
2020-Jul-09 23:46 304 6 gusting 15 22.2
2020-Jul-09 23:41 031 4 gusting 12 22.2
2020-Jul-09 23:36 304 6 gusting 12 22.2
2020-Jul-09 23:31 348 6 gusting 13 22.2
2020-Jul-09 23:26 311 8 gusting 13 22.2
2020-Jul-09 23:21 348 6 gusting 10 22.2
2020-Jul-09 23:16 331 6 gusting 15 22.2
2020-Jul-09 23:11 325 5 gusting 13 22.2
2020-Jul-09 23:06 025 6 gusting 13 22.2
2020-Jul-09 23:01 357 8 gusting 13 22.2
2020-Jul-09 22:56 321 7 gusting 14 22.2
2020-Jul-09 22:51 269 9 gusting 14 22.2
2020-Jul-09 22:41 315 6 gusting 19 22.2
2020-Jul-09 22:36 330 11 gusting 19 22.2
2020-Jul-09 22:31 345 7 gusting 16 22.2
2020-Jul-09 22:26 333 7 gusting 16 22.2
2020-Jul-09 22:21 338 6 gusting 11 22.2
2020-Jul-09 22:16 304 6 gusting 14 22.2
2020-Jul-09 22:11 338 6 gusting 15 22.2
2020-Jul-09 22:06 325 6 gusting 15 22.2
2020-Jul-09 22:01 299 6 gusting 14 22.2
2020-Jul-09 21:56 352 8 gusting 14 22.2
2020-Jul-09 21:51 342 8 gusting 14 22.2
2020-Jul-09 21:46 281 10 gusting 14 22.2
2020-Jul-09 21:41 259 8 gusting 17 22.2
2020-Jul-09 21:36 282 11 gusting 17 22.2
2020-Jul-09 21:31 328 9 gusting 16 22.2
2020-Jul-09 21:26 358 9 gusting 16 22.2
2020-Jul-09 21:21 323 8 gusting 13 22.2
2020-Jul-09 21:16 318 7 gusting 10 22.2
2020-Jul-09 21:11 347 4 gusting 13 22.2
2020-Jul-09 21:06 034 6 gusting 13 22.2
2020-Jul-09 21:01 333 6 gusting 10 22.2
2020-Jul-09 20:56 314 6 gusting 11 22.2
2020-Jul-09 20:51 330 6 gusting 11 22.8
2020-Jul-09 20:46 359 6 gusting 13 22.8
2020-Jul-09 20:41 028 7 gusting 13 22.8
2020-Jul-09 20:36 321 8 gusting 15 22.8
2020-Jul-09 20:31 340 7 gusting 15 22.8
2020-Jul-09 20:26 309 7 gusting 13 22.8
2020-Jul-09 20:21 330 8 gusting 14 22.8
2020-Jul-09 20:16 309 7 gusting 13 22.8
2020-Jul-09 20:11 019 7 gusting 13 22.8
2020-Jul-09 20:06 335 7 gusting 14 22.8
2020-Jul-09 20:01 323 8 gusting 13 22.8
2020-Jul-09 19:56 311 7 gusting 13 22.8
2020-Jul-09 19:51 303 7 gusting 13 22.8
2020-Jul-09 19:46 302 8 gusting 13 22.8
2020-Jul-09 19:41 312 6 gusting 10 22.8
2020-Jul-09 19:36 329 6 gusting 12 22.8
2020-Jul-09 19:31 326 6 gusting 11 22.8
2020-Jul-09 19:26 336 6 gusting 10 22.8
2020-Jul-09 19:21 082 5 gusting 11 22.8
2020-Jul-09 19:16 333 6 gusting 11 22.8
2020-Jul-09 19:11 280 6 gusting 9 22.8
2020-Jul-09 19:06 323 5 gusting 9 22.8
2020-Jul-09 19:01 314 6 gusting 10 22.8
2020-Jul-09 18:56 318 6 gusting 11 22.8
2020-Jul-09 18:51 349 7 gusting 12 22.8
2020-Jul-09 18:46 323 7 gusting 13 22.8
2020-Jul-09 18:41 343 7 gusting 13 22.8
2020-Jul-09 18:36 318 8 gusting 13 22.8
2020-Jul-09 18:31 318 6 gusting 12 22.8
2020-Jul-09 18:26 011 6 gusting 13 22.8
2020-Jul-09 18:21 016 7 gusting 14 23.3
2020-Jul-09 18:16 332 6 gusting 12 23.3
2020-Jul-09 18:11 321 6 gusting 11 23.3
2020-Jul-09 18:06 285 5 gusting 12 23.3
2020-Jul-09 18:01 027 6 gusting 13 23.3
2020-Jul-09 17:56 297 6 gusting 12 23.3
2020-Jul-09 17:51 342 6 gusting 11 23.3
2020-Jul-09 17:46 346 6 gusting 12 23.3
2020-Jul-09 17:41 037 6 gusting 10 23.3
2020-Jul-09 17:36 314 6 gusting 10 23.3
2020-Jul-09 17:31 335 5 gusting 10 23.3
2020-Jul-09 17:26 009 6 gusting 10 23.3
2020-Jul-09 17:21 341 6 gusting 11 23.3
2020-Jul-09 17:16 352 7 gusting 12 23.9
2020-Jul-09 17:11 313 6 gusting 13 23.9
2020-Jul-09 17:06 338 7 gusting 13 23.9
2020-Jul-09 17:01 328 6 gusting 15 24.4
2020-Jul-09 16:56 311 6 gusting 15 24.4
2020-Jul-09 16:46 039 6 gusting 14 24.4
2020-Jul-09 16:41 342 8 gusting 14 24.4
2020-Jul-09 16:37 004 7 gusting 12 24.4
2020-Jul-09 16:31 328 6 gusting 13 25.0
2020-Jul-09 16:26 350 8 gusting 13 24.4
2020-Jul-09 16:21 325 7 gusting 13 25.0
2020-Jul-09 16:16 321 8 gusting 15 25.0
2020-Jul-09 16:11 311 9 gusting 15 25.0
2020-Jul-09 16:06 347 8 gusting 15 25.0
2020-Jul-09 16:01 062 9 gusting 13 25.0
2020-Jul-09 15:56 348 9 gusting 14 25.0
2020-Jul-09 15:47 345 8 gusting 13 25.0
2020-Jul-09 15:36 301 9 gusting 14 25.0
2020-Jul-09 15:26 323 8 gusting 14 25.0
2020-Jul-09 15:21 326 9 gusting 14 25.0
2020-Jul-09 15:16 026 8 gusting 14 25.6
2020-Jul-09 15:11 322 8 gusting 15 25.6
2020-Jul-09 15:07 072 9 gusting 14 25.6
2020-Jul-09 15:01 340 8 gusting 17 25.6
2020-Jul-09 14:56 294 8 gusting 18 25.6
2020-Jul-09 14:51 011 11 gusting 17 25.6
2020-Jul-09 14:47 309 10 gusting 16 25.6
2020-Jul-09 14:41 014 10 gusting 15 25.6
2020-Jul-09 14:36 347 9 gusting 15 25.6
2020-Jul-09 14:31 025 10 gusting 19 25.6
2020-Jul-09 14:26 331 10 gusting 19 25.6
2020-Jul-09 14:21 037 10 gusting 16 26.1
2020-Jul-09 14:16 341 7 gusting 17 26.1
2020-Jul-09 14:11 011 12 gusting 18 26.1
2020-Jul-09 14:06 004 12 gusting 17 26.1
2020-Jul-09 14:01 355 11 gusting 18 26.7
2020-Jul-09 13:56 341 12 gusting 16 26.7
2020-Jul-09 13:51 359 11 gusting 16 26.7
2020-Jul-09 13:46 351 7 gusting 15 27.2
2020-Jul-09 13:41 326 8 gusting 16 27.2
2020-Jul-09 13:36 330 11 gusting 18 27.2
2020-Jul-09 13:31 345 8 gusting 18 27.2
2020-Jul-09 13:26 039 7 gusting 14 27.8
2020-Jul-09 13:21 311 7 gusting 13 27.8
2020-Jul-09 13:16 333 7 gusting 13 27.8
2020-Jul-09 13:11 329 7 gusting 19 27.8
2020-Jul-09 13:06 336 10 gusting 16 27.8
2020-Jul-09 13:01 005 11 gusting 15 27.8
2020-Jul-09 12:56 323 8 gusting 19 27.8
2020-Jul-09 12:51 029 10 gusting 19 27.8
2020-Jul-09 12:46 297 9 gusting 14 28.3
2020-Jul-09 12:41 348 7 gusting 17 28.3
2020-Jul-09 12:36 330 11 gusting 18 28.3
2020-Jul-09 12:31 323 6 gusting 18 27.8
2020-Jul-09 12:26 311 11 gusting 17 27.8
2020-Jul-09 12:21 321 9 gusting 19 27.8
2020-Jul-09 12:16 040 9 gusting 19 28.3
2020-Jul-09 12:12 325 8 gusting 18 27.8
2020-Jul-09 12:06 001 11 gusting 18 27.8
2020-Jul-09 12:01 338 10 gusting 16 27.8
2020-Jul-09 11:56 027 8 gusting 17 27.8
2020-Jul-09 11:51 008 11 gusting 17 27.8
2020-Jul-09 11:46 341 8 gusting 17 27.8
2020-Jul-09 11:41 019 10 gusting 17 28.3
2020-Jul-09 11:36 315 12 gusting 17 28.3
2020-Jul-09 11:31 328 6 gusting 17 27.8
2020-Jul-09 11:26 338 11 gusting 17 27.8
2020-Jul-09 11:22 040 10 gusting 18 27.8
2020-Jul-09 11:16 018 12 gusting 18 28.3
2020-Jul-09 11:11 355 7 gusting 14 28.3
2020-Jul-09 11:06 360 9 gusting 14 28.3
2020-Jul-09 11:01 041 6 gusting 13 28.3
2020-Jul-09 10:56 051 8 gusting 13 28.3
2020-Jul-09 10:51 354 7 gusting 17 28.3
2020-Jul-09 10:46 011 11 gusting 17 28.3
2020-Jul-09 10:41 030 9 gusting 14 28.3
2020-Jul-09 10:36 001 7 gusting 15 28.3
2020-Jul-09 10:31 040 9 gusting 15 27.8
2020-Jul-09 10:26 319 8 gusting 14 28.3
2020-Jul-09 10:21 046 7 gusting 15 27.8
2020-Jul-09 10:16 001 7 gusting 16 28.3
2020-Jul-09 10:11 008 7 gusting 15 27.8
2020-Jul-09 10:06 331 6 gusting 15 27.8
2020-Jul-09 10:01 352 7 gusting 15 27.2
2020-Jul-09 09:56 331 8 gusting 15 27.2
2020-Jul-09 09:51 018 9 gusting 14 27.2
2020-Jul-09 09:46 351 7 gusting 14 27.2
2020-Jul-09 09:41 352 8 gusting 15 27.2
2020-Jul-09 09:36 330 11 gusting 19 27.2
2020-Jul-09 09:31 340 11 gusting 19 26.7
2020-Jul-09 09:26 321 10 gusting 16 27.2
2020-Jul-09 09:21 305 10 gusting 16 27.2
2020-Jul-09 09:16 321 11 gusting 18 26.7
2020-Jul-09 09:06 309 11 gusting 16 27.2
2020-Jul-09 09:01 287 9 gusting 18 26.7
2020-Jul-09 08:56 311 10 gusting 19 26.7
2020-Jul-09 08:51 316 9 gusting 19 26.7
2020-Jul-09 08:46 324 12 gusting 17 27.2
2020-Jul-09 08:41 309 10 gusting 15 27.2
2020-Jul-09 08:37 278 8 gusting 13 27.2
2020-Jul-09 08:31 351 6 gusting 16 26.7
2020-Jul-09 08:26 325 10 gusting 16 26.7
2020-Jul-09 08:21 338 9 gusting 18 27.2
2020-Jul-09 08:16 345 10 gusting 18 26.7
2020-Jul-09 08:11 001 10 gusting 14 27.2
2020-Jul-09 08:06 356 8 gusting 16 27.2
2020-Jul-09 08:01 305 7 gusting 16 27.2
2020-Jul-09 07:56 324 7 gusting 12 27.2
2020-Jul-09 07:51 120 6 gusting 13 27.2
2020-Jul-09 07:46 301 6 gusting 18 26.7
2020-Jul-09 07:41 324 8 gusting 18 27.2
2020-Jul-09 07:36 350 7 gusting 14 26.7
2020-Jul-09 07:31 333 8 gusting 16 26.7
2020-Jul-09 07:26 328 8 gusting 15 26.7
2020-Jul-09 07:21 319 8 gusting 13 26.7
2020-Jul-09 07:16 335 8 gusting 16 26.7
2020-Jul-09 07:11 314 11 gusting 16 26.7
2020-Jul-09 07:06 321 9 gusting 17 26.7
2020-Jul-09 07:01 308 10 gusting 17 26.1
2020-Jul-09 06:56 348 9 gusting 14 26.1
2020-Jul-09 06:51 018 10 gusting 16 26.7
2020-Jul-09 06:46 348 8 gusting 16 26.7
2020-Jul-09 06:41 270 8 gusting 15 26.7
2020-Jul-09 06:36 016 8 gusting 15 26.7
2020-Jul-09 06:31 353 8 gusting 15 26.7
2020-Jul-09 06:26 328 6 gusting 14 26.1
2020-Jul-09 06:21 321 8 gusting 13 26.1
2020-Jul-09 06:16 006 8 gusting 14 26.1
2020-Jul-09 06:11 326 9 gusting 14 26.1
2020-Jul-09 06:06 051 7 gusting 13 26.1
2020-Jul-09 06:01 034 8 gusting 15 26.1
2020-Jul-09 05:56 338 6 gusting 13 26.1
2020-Jul-09 05:51 318 5 gusting 13 25.6
2020-Jul-09 05:46 331 6 gusting 15 25.6
2020-Jul-09 05:41 351 7 gusting 15 25.6
2020-Jul-09 05:36 323 7 gusting 13 25.6
2020-Jul-09 05:31 309 8 gusting 13 25.0
2020-Jul-09 05:26 319 8 gusting 13 25.0
2020-Jul-09 05:21 309 7 gusting 13 25.0
2020-Jul-09 05:16 323 7 gusting 13 25.0
2020-Jul-09 05:11 276 6 gusting 13 25.0
2020-Jul-09 05:06 345 8 gusting 13 25.0
2020-Jul-09 05:01 301 6 gusting 14 24.4